Regional Weather Roundup
Issued by NWS

Home | Current Version | Previous Version | Text Only | Print | Product List | Glossary Off
Versions: 1 2 3 4 5 6 7 8 9 10 11 12 13 14 15 16 17 18 19 20 21 22 23 24 25 26 27 28 29 30 31 32 33 34 35 36 37 38 39 40 41 42 43 44 45 46 47 48 49 50

000
ASUS43 KLOT 310810
RWRIL

ILLINOIS REGIONAL WEATHER ROUNDUP
NATIONAL WEATHER SERVICE CHICAGO/ROMEOVILLE IL
300 AM CDT SUN AUG 31 2014

NOTE: "FAIR" INDICATES FEW OR NO CLOUDS BELOW 12,000 FEET WITH NO
SIGNIFICANT WEATHER AND/OR OBSTRUCTIONS TO VISIBILITY.

* THESE STATIONS ARE NOT UNDER NWS QUALITY CONTROL. THEY ALSO MAY NOT
  REPORT WEATHER SUCH AS PRECIPITATION OR FOG.

ILZ001-002-007-009-015-016-024-310900-
NORTHWEST ILLINOIS

CITY           SKY/WX    TMP DP  RH WIND       PRES   REMARKS
MOLINE         PTCLDY    64  63  96 CALM      29.91S FOG
STERLING*      PTCLDY    64  61  88 CALM      29.91F
SAVANNA*       FOG       64  62  94 CALM      29.91S VSB 1/2
$$

ILZ003-004-008-010-011-017-018-310900-
NORTH CENTRAL ILLINOIS

CITY           SKY/WX    TMP DP  RH WIND       PRES   REMARKS
ROCKFORD       MOCLDY    65  63  93 CALM      29.92S
FREEPORT*      CLEAR     63  61  94 SW3       29.94S
ROCHELLE*      PTCLDY    62  61  96 CALM      29.92S
DE KALB*       PTCLDY    65  62  91 S5        29.93S
PERU*          CLEAR     69  67  94 SW3       29.92S
$$

ILZ005-006-012>014-019>023-310900-
NORTHEAST ILLINOIS

CITY           SKY/WX    TMP DP  RH WIND       PRES   REMARKS
CHICAGO-OHARE  MOCLDY    70  65  84 SW3       29.91S
CHICAGO-MIDWAY MOCLDY    73  68  84 S7        29.92R
AURORA         PTCLDY    65  63  93 CALM      29.92S FOG
LANSING*         N/A    N/A N/A N/A MISG        N/A
JOLIET*        MOCLDY    68  66  93 CALM      29.93R
WAUKEGAN       MOCLDY    67  63  87 SW5       29.90S
DUPAGE AIRPORT CLOUDY    69  66  90 CALM      29.92R
KANKAKEE*      MOCLDY    68  66  94 CALM      29.94R
WHEELING       MOCLDY    70  66  87 CALM      29.93R
MORRIS*        MOCLDY    69  69 100 E3        29.92R FOG
ROMEOVILLE*    MOCLDY    67  67  99 S7        29.93R
NORTHERLY ISL    N/A     73  66  78 S5          N/A
$$

LMZ740>746-310900-
SOUTHERN LAKE MICHIGAN

STATION/POSITION SKY/WX   TEMP    WIND        PRES    VSBY  WAVE
                          AIR SEA DIR/SP/G                  HT/PER
                          (F)     (DEG/KT/KT) (MB)    (MI)  (FT/S)
SOUTHERN BUOY              70 69  230/  6/  6 1012.4R         1
WAUKEGAN HARBOR            70     210/  4/  5   N/A
HARRISON CRIB              72     200/  6/  8   N/A
BURNHAM HARBOR             72     200/  5/  8   N/A
CALUMET HARBOR             71     190/  5/  7 1012.1S
MICHIGAN CITY              69     170/  9/ 11   N/A
MICHIGAN CITY 6N           70 72  200/ 10/ 12   N/A           1/ 3
ST. JOSEPH                 71 71  200/  8/ 12   N/A           2/ 3
$$

ILZ025>027-034>036-040-047-049-050-058-095>099-310900-
WEST-CENTRAL ILLINOIS

CITY           SKY/WX    TMP DP  RH WIND       PRES   REMARKS
QUINCY         CLEAR     71  68  90 S6        29.91S
GALESBURG*     FOG       63  62  97 CALM      29.92S VSB 1/2
MACOMB*        CLEAR     64  63  99 CALM      29.93S
JACKSONVILLE*  CLEAR     74  72  94 S6        29.93S
PITTSFIELD*    CLEAR     71  67  88 S3        29.93S
$$

ILZ028>032-037-038-041>044-048-051>054-059>061-310900-
CENTRAL ILLINOIS

CITY           SKY/WX    TMP DP  RH WIND       PRES   REMARKS
PONTIAC        PTCLDY    68  66  94 CALM      29.92S
DECATUR        CLOUDY    73  70  90 S9        29.95S
PEORIA         PTCLDY    71  65  81 S3        29.92S
LACON*         CLEAR     69  68  95 SE3       29.90S
LINCOLN*       CLOUDY    73  72  95 S7        29.90F FOG
SPRINGFIELD    CLEAR     73  71  93 S7        29.93F
TAYLORVILLE    PTCLDY    70  70 100 S8        29.95R
$$

ILZ033-039-045-046-055>057-062-063-310900-
EAST-CENTRAL ILLINOIS

CITY           SKY/WX    TMP DP  RH WIND       PRES   REMARKS
CHAMPAIGN      CLOUDY    73  70  90 S8        29.95F
DANVILLE*      HVY RAIN  71  70  97 S6        29.94S
RANTOUL*       CLOUDY    74  69  86 SW8       29.96R
MATTOON        CLOUDY    72  70  93 S6        29.95F
PARIS*         CLOUDY    72  70  94 S8        29.97F
$$

ILZ079-100>102-310900-
SOUTHWEST ILLINOIS

CITY           SKY/WX    TMP DP  RH WIND       PRES   REMARKS
BELLEVILLE     CLEAR     72  71  99 E3        29.94S
CAHOKIA*       CLEAR     72  70  93 S5        29.94
SPARTA*        CLOUDY    72  71  97 SE5       29.97S
$$

ILZ064>066-069>071-074>076-080>082-084>086-088>090-092>094-310900-
SOUTH-CENTRAL ILLINOIS

CITY           SKY/WX    TMP DP  RH WIND       PRES   REMARKS
CARBONDALE     PTCLDY    72  70  93 S6        29.97F
CAIRO*         CLOUDY    74  70  87 S6        29.98S
EFFINGHAM*     CLOUDY    72  68  88 S6        29.97S
MARION         CLOUDY    73  72  94 CALM      29.98F
MT. VERNON     CLOUDY    73  66  78 S6        29.98S
CENTRALIA*     PTCLDY    72  70  94 S7        29.97S
SALEM*         CLOUDY    74  73  93 S7        29.97F
METROPOLIS*    CLOUDY    73  73 100 S3        29.99S
$$

ILZ067-068-072-073-078-083-087-091-310900-
SOUTHEAST ILLINOIS

CITY           SKY/WX    TMP DP  RH WIND       PRES   REMARKS
LAWRENCEVILLE  CLOUDY    72  71  97 S6        29.99S
FLORA*         CLOUDY    72  71  95 S5        29.98F
FAIRFIELD*     CLOUDY    73  72  94 S5        29.98S FOG
HARRISBURG*    CLOUDY    72  72 100 CALM      29.99F
ROBINSON*      CLOUDY    72  71  97 CALM      29.99F
CARMI*         CLOUDY    73  72  99 CALM      29.98S
$$

ABBREVIATIONS USED IN REMARKS
   TC - TEMPERATURE IN CELSIUS
  WCI - WIND CHILL INDEX
   HX - HEAT INDEX
  VSB - VISIBILITY
$$




USA.gov is the U.S. government's official web portal to all federal, state and local government web resources and services.